ALLMENDG1 Weather Reports


time (UTC)temp
C
wind
direction
speed
KPH
gust
KPH
rain 1hr
cm
rain 24hr
cm
rain mn
cm
humidity
%
barometer
mb
20260502130210 25 78 8.0 0.0 0.00 0.00 0.00 25 1018.8
20260502123210 25 55 8.0 0.0 0.00 0.00 0.00 27 1019.2
20260502120210 23 239 11.3 0.0 0.00 0.00 0.00 32 1019.6
20260502113210 23 76 11.3 0.0 0.00 0.00 0.00 32 1020.0
20260502110210 22 197 11.3 0.0 0.00 0.00 0.00 41 1020.5
20260502103210 21 196 12.9 0.0 0.00 0.00 0.00 46 1020.8
20260502100210 20 252 9.7 0.0 0.00 0.00 0.00 45 1021.2
20260502090210 18 233 11.3 0.0 0.00 0.00 0.00 50 1021.9
20260502070213 12 148 0.0 0.0 0.00 0.00 0.00 64 1022.5
20260502063212 10 130 0.0 0.0 0.00 0.00 0.00 74 1022.7
20260502060210 6 78 0.0 0.0 0.00 0.00 0.00 86 1022.6
20260502053210 3 68 0.0 0.0 0.00 0.00 0.00 90 1022.6
20260502050211 2 62 0.0 0.0 0.00 0.00 0.00 88 1022.6
20260502043211 2 62 0.0 0.0 0.00 0.00 0.00 88 1022.6
20260502040212 1 81 8.0 0.0 0.00 0.00 0.00 86 1022.5
20260502033211 1 43 0.0 0.0 0.00 0.00 0.00 85 1022.5
20260502030211 2 43 0.0 0.0 0.00 0.00 0.00 84 1022.3
20260502023214 2 48 0.0 0.0 0.00 0.00 0.00 84 1022.5
20260502020212 3 53 4.8 0.0 0.00 0.00 0.00 84 1022.6
20260502013211 3 120 0.0 0.0 0.00 0.00 0.00 83 1022.8
20260502010211 3 41 4.8 0.0 0.00 0.00 0.00 82 1023.0
20260502003209 3 98 0.0 0.0 0.00 0.00 0.00 80 1023.2
20260502000211 5 63 0.0 0.0 0.00 0.00 0.00 77 1023.3
20260501233210 5 22 0.0 0.0 0.00 0.00 0.00 76 1023.7
20260501230210 6 29 0.0 0.0 0.00 0.00 0.00 75 1023.7
20260501223209 7 38 1.6 0.0 0.00 0.00 0.00 73 1023.7
20260501220210 8 57 3.2 0.0 0.00 0.00 0.00 70 1023.7
20260501213210 9 38 4.8 0.0 0.00 0.00 0.00 65 1023.6
20260501210209 10 68 6.4 0.0 0.00 0.00 0.00 62 1023.7
20260501203209 11 76 6.4 0.0 0.00 0.00 0.00 60 1023.8
20260501200211 11 100 0.0 0.0 0.00 0.00 0.00 60 1023.7
20260501193209 13 55 3.2 0.0 0.00 0.00 0.00 53 1023.4
20260501190210 17 61 0.0 0.0 0.00 0.00 0.00 42 1023.2
20260501183210 17 74 11.3 0.0 0.00 0.00 0.00 38 1023.1
20260501180210 19 55 11.3 0.0 0.00 0.00 0.00 35 1022.9
20260501173211 20 68 17.7 0.0 0.00 0.00 0.00 33 1022.8
20260501170210 21 132 20.9 0.0 0.00 0.00 0.00 30 1022.8
20260501163209 21 74 20.9 0.0 0.00 0.00 0.00 30 1023.0
20260501160210 21 62 17.7 0.0 0.00 0.00 0.00 29 1023.1
20260501153210 22 69 19.3 0.0 0.00 0.00 0.00 28 1023.3
20260501150210 22 38 25.7 0.0 0.00 0.00 0.00 27 1023.5
20260501143210 22 46 17.7 0.0 0.00 0.00 0.00 28 1023.7